[TLELIST] Archives

 

[list_settings.list_name] Current TLEs

December 1st 2009 PST

HST 1 20580U 90037B 09333.76202740 .00000435 00000-0 20545-4 0 4829 2 20580 028.4680 101.6267 0003435 239.2399 120.7924 15.00860943874752 ISS (ZARYA) 1 25544U 98067A 09334.32442130 .00014203 00000-0 92577-4 0 814 2 25544 051.6475 173.1165 0007323 033.1354 318.0962 15.76182279632129 CXO 1 25867U 99040B 09333.08333333 .00000490 00000-0 10000-3 0 3984 2 25867 066.1851 062.8876 7826296 275.2885 357.7085 00.37807320 5630 ____________________________________________________________________ These 2-Line ...Continue Reading

[list_settings.list_name] Current TLEs

November 30th 2009 PST

HST 1 20580U 90037B 09331.83359940 .00000419 00000-0 19328-4 0 4818 2 20580 028.4682 114.2145 0003348 221.0088 139.0394 15.00859792874468 ISS (ZARYA) 1 25544U 98067A 09333.37390046 .00017370 00000-0 11235-3 0 758 2 25544 051.6458 178.0130 0007369 029.5110 324.6481 15.76163626631971 CXO 1 25867U 99040B 09333.08333333 .00000490 00000-0 10000-3 0 3984 2 25867 066.1851 062.8876 7826296 275.2885 357.7085 00.37807320 5630 ____________________________________________________________________ These 2-Line ...Continue Reading

[list_settings.list_name] Current TLEs

November 29th 2009 PST

HST 1 20580U 90037B 09331.83359940 .00000419 00000-0 19328-4 0 4818 2 20580 028.4682 114.2145 0003348 221.0088 139.0394 15.00859792874468 ISS (ZARYA) 1 25544U 98067A 09332.36041667 .00019073 00000-0 12310-3 0 687 2 25544 051.6459 183.2345 0007436 026.3346 333.3198 15.76132763631812 CXO 1 25867U 99040B 09333.08333333 .00000490 00000-0 10000-3 0 3984 2 25867 066.1851 062.8876 7826296 275.2885 357.7085 00.37807320 5630 ____________________________________________________________________ These 2-Line ...Continue Reading

[list_settings.list_name] Current TLEs

November 28th 2009 PST

HST 1 20580U 90037B 09327.91023735 .00000363 00000-0 15029-4 0 4803 2 20580 028.4678 139.8263 0003384 179.5615 180.4987 15.00857635873876 ISS (ZARYA) 1 25544U 98067A 09331.34092593 .00015332 00000-0 10000-3 0 620 2 25544 051.6455 188.4863 0007578 022.4470 308.6948 15.76085418631656 CXO 1 25867U 99040B 09330.41666667 .00000516 00000-0 10000-3 0 3975 2 25867 066.1690 063.0249 7823491 275.2681 354.7319 00.37808764 5625 ____________________________________________________________________ These 2-Line ...Continue Reading

[list_settings.list_name] Current TLEs

November 27th 2009 PST

HST 1 20580U 90037B 09327.91023735 .00000363 00000-0 15029-4 0 4803 2 20580 028.4678 139.8263 0003384 179.5615 180.4987 15.00857635873876 ISS (ZARYA) 1 25544U 98067A 09330.22235191 .00042985 00000-0 27217-3 0 553 2 25544 051.6458 194.2493 0007403 013.9554 086.3071 15.76076365631487 CXO 1 25867U 99040B 09330.41666667 .00000516 00000-0 10000-3 0 3975 2 25867 066.1690 063.0249 7823491 275.2681 354.7319 00.37808764 5625 ____________________________________________________________________ These 2-Line ...Continue Reading

[list_settings.list_name] Current TLEs

November 26th 2009 PST

HST 1 20580U 90037B 09327.91023735 .00000363 00000-0 15029-4 0 4803 2 20580 028.4678 139.8263 0003384 179.5615 180.4987 15.00857635873876 ISS (ZARYA) 1 25544U 98067A 09329.44380787 .00008447 00000-0 57243-4 0 500 2 25544 051.6466 198.2562 0007766 017.0070 343.0171 15.75985592631357 CXO 1 25867U 99040B 09327.79166667 .00000436 00000-0 10000-3 0 3967 2 25867 066.1565 063.1190 7819348 275.2591 357.4350 00.37806060 5619 ____________________________________________________________________ These 2-Line ...Continue Reading

[list_settings.list_name] Current TLEs

November 25th 2009 PST

HST 1 20580U 90037B 09327.91023735 .00000363 00000-0 15029-4 0 4803 2 20580 028.4678 139.8263 0003384 179.5615 180.4987 15.00857635873876 ISS (ZARYA) 1 25544U 98067A 09328.25677245 .00016285 00000-0 10343-3 0 447 2 25544 051.6455 204.3664 0006000 015.4510 084.9836 15.76650637631177 CXO 1 25867U 99040B 09327.79166667 .00000436 00000-0 10000-3 0 3967 2 25867 066.1565 063.1190 7819348 275.2591 357.4350 00.37806060 5619 ____________________________________________________________________ These 2-Line ...Continue Reading

[list_settings.list_name] Current TLEs

November 24th 2009 PST

HST 1 20580U 90037B 09325.91530634 .00000451 00000-0 21742-4 0 4797 2 20580 028.4680 152.8505 0003296 155.8973 204.1737 15.00857461873570 ISS (ZARYA) 1 25544U 98067A 09327.41173611 .00016041 00000-0 10207-3 0 395 2 25544 051.6460 208.7210 0006156 013.4367 327.4219 15.76621302631030 CXO 1 25867U 99040B 09327.79166667 .00000436 00000-0 10000-3 0 3967 2 25867 066.1565 063.1190 7819348 275.2591 357.4350 00.37806060 5619 ____________________________________________________________________ These 2-Line ...Continue Reading

[list_settings.list_name] Current TLEs

November 23rd 2009 PST

HST 1 20580U 90037B 09325.91530634 .00000451 00000-0 21742-4 0 4797 2 20580 028.4680 152.8505 0003296 155.8973 204.1737 15.00857461873570 ISS (ZARYA) 1 25544U 98067A 09326.29206178 .00014844 00000-0 94947-4 0 310 2 25544 051.6460 214.4928 0005985 008.5988 092.9455 15.76579988630861 CXO 1 25867U 99040B 09325.12500000 .00000308 00000-0 10000-3 0 3952 2 25867 066.1462 063.2047 7814958 275.2584 354.4399 00.37806188 5601 ____________________________________________________________________ These 2-Line ...Continue Reading

[list_settings.list_name] Current TLEs

November 22nd 2009 PST

HST 1 20580U 90037B 09324.65185284 .00000425 00000-0 19788-4 0 4781 2 20580 028.4688 161.0968 0003388 147.0440 213.0544 15.00856704873380 ISS (ZARYA) 1 25544U 98067A 09325.27701509 .00014116 00000-0 90634-4 0 259 2 25544 051.6459 219.7255 0005833 003.7012 092.9173 15.76546258630701 CXO 1 25867U 99040B 09325.12500000 .00000308 00000-0 10000-3 0 3952 2 25867 066.1462 063.2047 7814958 275.2584 354.4399 00.37806188 5601 ____________________________________________________________________ These 2-Line ...Continue Reading
  • This mailing list is a public mailing list - anyone may join or leave, at any time.
  • This mailing list is announce-only.

International Space Station (ISS) / Hubble Space Telescope (HST) / Chandra X-Ray Observatory Orbital Data via EMAIL

Privacy Policy:

Private list